Погода в Рощино

Россия / Ставропольский край     44°08′56″N   45°12′12″E
темп.,
°C
ветер,
м/с
пор.,
м/с
влажн.,
%
обл.,
%
осадки,
мм/ч
давл.,
гПа
погр.,
м
18 мая, ср
ср1800:00+16з597199 0.1 1016419
03:00+15з367599 0.2 1016220
06:00+14зюз347686 0.0 1016196
09:00+19юз3255100 0.0 10161040
12:00+22ююв334398 0.0 10141607
15:00+24вюв44365 0.0 10121997
18:00+22юв794811 0.0 1011691
21:00+16юв6116428 0.0 1012368
19 мая, чт
чт1900:00+14юв487342 0.0 1012230
03:00+12юв34835 0.0 101180
06:00+14зсз01780 0.0 101290
09:00+20ссз45560 0.0 1013736
12:00+24ссз44430 0.0 10131400
15:00+25ссз544042 0.0 10132006
18:00+17сз101460100 0.0 1014772
21:00+14сз81169100 0.3 1017892
20 мая, пт
пт2000:00+11зсз71288100 2.0 1018733
03:00+10з71287100 3.1 1019912
06:00+11з7137599 0.9 10191011
09:00+13з9137074 0.9 10191331
12:00+17сз91252100 0.4 10191914
15:00+17зсз7949100 0.4 10181828
18:00+17зсз6854100 0.0 1018703
21:00+12зюз478598 1.0 1020150
21 мая, сб
сб2100:00+11з5108873 0.1 1019271
03:00+10з5118956 0.1 1019250
06:00+11зюз59815 0.0 1019266
09:00+17з5755100 0.0 1018973
12:00+20з674036 0.0 10152191
15:00+22з5636100 0.0 10132213
18:00+20зсз3445100 0.0 1011191
21:00+14сз5981100 0.1 1013317
22 мая, вс
вс2200:00+14ююз6108693 1.4 1010284
03:00+14зсз41087100 1.7 1010439
06:00+14зсз5147153 0.3 10111198
09:00+14сз587589 0.3 1012932
12:00+17сз565933 0.0 10111124
15:00+20ссз45515 0.0 10091176
18:00+19ссв2251100 0.0 10071170
21:00+16всв465683 0.0 1007130